Hourly Data Report for July 16, 2021

WRIGLEY A
NORTHWEST TERRITORIES
Current Station Operator: NAVCAN

63°12'35.000" N
123°26'12.000" W
149.70 m
2204005
YWY

Download Data

Hourly Data (July 2021)
Hourly Data Report for July 16, 2021
TIME
LST
Temp Definition
°C
Dew Point Definition
°C
Rel Hum Definition
%
Precip. Amount Definition
mm

Wind Dir Definition
10's deg

Wind Spd Definition
km/h
Visibility Definition
km
Stn Press Definition
kPa
Hmdx Definition


Wind Chill Definition


Weather Definition


00:00 3.8 0.8 81 LegendMM 1 5 LegendMM 100.33     LegendNANA
01:00 2.2 0.5 89 LegendMM 5 5 LegendMM 100.36     LegendNANA
02:00 1.5 0.2 91 LegendMM 3 5 LegendMM 100.38     LegendNANA
03:00 1.0 0.4 96 LegendMM 6 4 LegendMM 100.40     LegendNANA
04:00 -0.2 -0.8 96 LegendMM 5 7 LegendMM 100.42   -3 LegendNANA
05:00 -0.1 -0.7 96 LegendMM 3 6 LegendMM 100.43   -2 LegendNANA
06:00 1.9 0.8 92 LegendMM 6 4 LegendMM 100.44     LegendNANA
07:00 5.2 2.8 85 LegendMM 22 2 LegendMM 100.45     LegendNANA
08:00 7.3 1.7 68 LegendMM 15 10 LegendMM 100.43     LegendNANA
09:00 9.3 2.5 62 LegendMM 13 10 LegendMM 100.40     LegendNANA
10:00 11.0 1.9 53 LegendMM 14 16 LegendMM 100.38     LegendNANA
11:00 12.0 1.3 48 LegendMM 15 17 LegendMM 100.32     LegendNANA
12:00 13.0 1.7 46 LegendMM 14 16 LegendMM 100.28     LegendNANA
13:00 14.3 1.8 42 LegendMM 15 14 LegendMM 100.27     LegendNANA
14:00 LegendMM LegendMM LegendMM LegendMM LegendMM LegendMM LegendMM LegendMM     LegendNANA
15:00 16.1 1.8 38 LegendMM 14 16 LegendMM 100.19     LegendNANA
16:00 16.9 2.2 37 LegendMM 11 11 LegendMM 100.17     LegendNANA
17:00 17.3 1.7 35 LegendMM 14 18 LegendMM 100.14     LegendNANA
18:00 18.0 1.0 32 LegendMM 14 13 LegendMM 100.13     LegendNANA
19:00 17.9 1.6 33 LegendMM 14 14 LegendMM 100.12     LegendNANA
20:00 17.7 1.4 33 LegendMM 15 12 LegendMM 100.15     LegendNANA
21:00 16.7 2.2 37 LegendMM 14 8 LegendMM 100.19     LegendNANA
22:00 15.2 3.1 44 LegendMM 13 9 LegendMM 100.22     LegendNANA
23:00 14.0 2.3 45 LegendMM 14 8 LegendMM 100.25     LegendNANA

Notes on Data Quality.

Legend

  • E = Estimated
  • M = Missing
  • NA = Not Available*
  • [empty] = Indicates an unobserved value
Date modified: